Terug naar catalogus

GRUS-3B

ActiefWetenschapSSO
NORAD 69918·PAYLOAD·🇫🇮 Finland

Gelanceerd Jul 7, 2026 vanaf Vandenberg Space Force Base

Loading…

Volgende Passages (komende 24 uur)

TLE

VersSource: Space-Track

Epoch: Sep 14, 2026, 03:52 UTC

1 69918U 26156BB  26257.16155677  .00000632  00000-0  68185-4 0  9996
2 69918  97.7472 156.4800 0004924 292.1087  67.9609 14.91825705 10261

Volg GRUS-3B in realtime met AllMySat

Download on the App Store